Regional Weather Roundup
Issued by NWS

Home | Current Version | Previous Version | Graphics & Text | Print | Product List | Glossary Off
Versions: 1 2 3 4 5 6 7 8 9 10 11 12 13 14 15 16 17 18 19 20 21 22 23 24 25 26 27 28 29 30 31 32 33 34 35 36 37 38 39 40 41 42 43 44 45 46 47 48 49 50

000
ASUS43 KDTX 232010
RWRMI
MICHIGAN HOURLY REGIONAL WEATHER ROUNDUP
NATIONAL WEATHER SERVICE DETROIT/PONTIAC MI
400 PM EDT MON APR 23 2018

NOTE: "FAIR" INDICATES FEW OR NO CLOUDS BELOW 12,000 FEET WITH NO
SIGNIFICANT WEATHER AND/OR OBSTRUCTION TO VISIBILITY.

MIZ047>049-052>055-059>063-066>070-074>076-081>083-232100-
SOUTHEAST LOWER MICHIGAN

CITY           SKY/WX    TMP DP  RH WIND       PRES   REMARKS
ADRIAN         FAIR      70  45  40 SE12      30.14F
ALMA           FAIR      70  39  32 NE9       30.15F
ANN ARBOR      FAIR      70  44  39 E14G20    30.15F
BAD AXE        FAIR      70  29  22 SE9G21    30.20F
CARO           FAIR      72  37  28 SE9       30.16F
DETROIT CITY   FAIR      68  42  38 E10       30.17F
DETROIT        PTSUNNY   71  42  35 E9        30.16F
FLINT          FAIR      71  40  32 S14       30.15F
GROSSE ILE     FAIR      67  45  44 S3        30.15F
HILLSDALE      FAIR      70  41  35 E14       30.12F
HOWELL         FAIR      69  39  33 SE9       30.15F

CITY           SKY/WX    TMP DP  RH WIND       PRES   REMARKS
JACKSON        FAIR      73  42  32 E12G18    30.13F
LAMBERTVILLE   FAIR      64  42  44 E7        30.15F
LANSING        FAIR      72  39  30 E12       30.14F
LAPEER         FAIR      69  40  34 S8G17     30.18S
MASON          FAIR      74  35  24 E13       30.14F
MONROE         FAIR      67  41  38 E10       30.15F
PONTIAC        CLOUDY    68  42  38 E8G17     30.16F
PORT HOPE        N/A     44  36  73 E6        30.21F
PORT HURON     FAIR      72  39  30 SE12G17   30.19S
TRI CITIES     FAIR      64  40  41 NE15      30.17F
MIDLAND        FAIR      67  42  40 NE8       30.17F
TROY           FAIR      69  38  33 E7        30.19F
SAGINAW HB     FAIR      63  37  39 N14       30.16F
$$
MIZ043>046-050>051-056>058-064>065-071>073-077>080-232100-
SOUTHWEST LOWER MICHIGAN

CITY           SKY/WX    TMP DP  RH WIND       PRES   REMARKS
BATTLE CREEK   FAIR      71  41  33 SE13      30.12F
BENTON HARBOR  FAIR      74  38  27 E12       30.09F
BIG RAPIDS     FAIR      69  21  16 SE10G17   30.15F
COLDWATER      FAIR      71  41  33 SE8G20    30.11F
FREMONT        FAIR      72  13  10 SE7G17    30.13F
HOLLAND        FAIR      72  39  30 E9        30.12F
GRAND RAPIDS   PTSUNNY   71  41  33 E12       30.13F
IONIA          FAIR      71  38  30 E9        30.13F
KALAMAZOO      FAIR      73  40  30 VRB7      30.11F
LUDINGTON      FAIR      62  30  29 N14       30.15F
MARSHALL       FAIR      72  38  28 E10G18    30.11F
MOUNT PLEASANT FAIR      70  36  28 SE7       30.16F
MUSKEGON       PTSUNNY   74  35  24 E9G18     30.12F
SOUTH HAVEN    FAIR      74  32  21 SE10      30.09F
$$
MIZ016>042-232100-
NORTHERN LOWER MICHIGAN

CITY           SKY/WX    TMP DP  RH WIND       PRES   REMARKS
ALPENA         FAIR      55  28  35 E8        30.24F
BEAVER ISLAND  FAIR      60  22  23 W7        30.23F
BELLAIRE       FAIR      64  25  22 NW9       30.19F
CADILLAC       FAIR      67  22  18 E8        30.16F
CHARLEVOIX     FAIR      56  26  31 NW7       30.25F
FRANKFORT      FAIR      60  26  27 N12G18    30.18F
GAYLORD        FAIR      62  14  15 CALM      30.19F
HARBOR SPRINGS FAIR      48  29  47 SW5       30.21F
HOUGHTON LAKE  FAIR      69  22  16 S9        30.17F
MANISTEE       FAIR      60  28  29 NW16G22   30.16F
OSCODA         FAIR      54  27  35 E7        30.22F
PELLSTON       FAIR      62  27  26 E10       30.21F
ROGERS CITY    FAIR      52  30  42 E6        30.24F
TRAVERSE CITY  PTSUNNY   56  33  42 NE7       30.18F
$$
MIZ007>008-015-232100-
EASTERN UPPER MICHIGAN

CITY           SKY/WX    TMP DP  RH WIND       PRES   REMARKS
KINROSS        FAIR      60  20  21 SW6       30.22F
MACKINAC ISLAN FAIR      55  26  33 CALM      30.23F
NEWBERRY       FAIR      54  22  29 S7        30.21S
S. S. MARIE    FAIR      60  27  28 S7        30.21F
MUNISING         N/A     65  16  15 SW5       30.17F
$$
MIZ004>006-011>014-085-232100-
CENTRAL UPPER MICHIGAN

CITY           SKY/WX    TMP DP  RH WIND       PRES   REMARKS
MANISTIQUE     FAIR      53  24  33 S7        30.22F
ESCANABA       FAIR      51  29  42 SE9       30.21S
MENOMINEE      FAIR      61  26  26 SE8       30.20F
SAWYER-GWINN   SUNNY     61  21  21 S3        30.18F
$$
MIZ001>003-009>011-084-232100-
WESTERN UPPER MICHIGAN

CITY           SKY/WX    TMP DP  RH WIND       PRES   REMARKS
IRON MOUNTAIN  FAIR      67  18  15 W5        30.16F
HOUGHTON       FAIR      57  31  37 W15       30.15F
COPPER HARBOR    N/A     59  30  33 VRB5      30.14F
IRONWOOD       FAIR      62  28  27 SW8       30.16F
$$

ABBREVIATIONS USED IN REMARKS
   TC - TEMPERATURE IN CELSIUS
  WCI - WIND CHILL INDEX
   HX - HEAT INDEX
  VSB - VISIBILITY




USA.gov is the U.S. government's official web portal to all federal, state and local government web resources and services.